#timestamp,LO_Frequency,Hit,StdDev 
1587535215.7,286047001.5,N
1587535235.5,286047001.6,N
1587535255.3,286047001.7,N
1587535275.2,286047001.8,N
1587535295.0,286047001.9,N
1587535295.9,286047001.9,N
1587535315.8,286047000.9,N
1587535335.6,286047000.0,N
1587535355.4,286047003.9,N
1587535375.3,286047004.3,N
1587535395.1,286047004.3,N
1587535415.8,286047001.4,N
1587535435.7,286047004.1,N
1587535455.5,286047006.0,N
1587535475.4,286047006.2,N
1587535495.2,286047010.6,Y
1587535515.0,286047007.5,P
1587535515.9,286047007.5,N
1587535535.8,286047003.1,N
1587535555.6,286047002.4,N
1587535575.5,286047004.4,N
1587535595.3,286047001.5,N
1587535615.1,286047000.5,N
1587535635.9,286047003.9,N
1587535655.7,286047006.0,N
1587535675.5,286047001.6,N
1587535695.4,286047003.2,N
1587535715.2,286047004.3,N
1587535735.1,286047001.6,N
1587535736.0,286047001.6,N
1587535755.8,286047000.6,N
1587535775.6,286047002.4,N
1587535795.5,286047003.2,N
1587535815.3,286047003.6,N
1587535835.2,286047004.3,N
1587535855.0,286047003.7,N
1587535855.9,286047003.7,N
1587535875.7,286047002.2,N
1587535895.6,286047002.2,N
1587535915.4,286047002.7,N
1587535935.3,286047001.0,N
1587535955.1,286047002.2,N
1587535956.0,286047002.2,N
1587535975.8,286047001.3,N
1587535995.7,286047005.3,Y
1587536015.5,286047003.0,P
1587536035.4,286047004.5,P
1587536055.2,286047001.9,N
1587536075.0,286047000.3,N
1587536075.9,286047000.3,N
1587536095.8,286046999.6,N
1587536115.6,286046996.6,N
1587536135.5,286047000.4,N
1587536155.3,286047003.7,N
1587536175.1,286047007.0,Y
1587536195.9,286047006.8,P
1587536215.7,286047007.1,N
1587536235.6,286047004.9,N
1587536255.4,286047005.1,N
1587536275.2,286047005.9,N
1587536295.1,286047001.6,N
1587536296.0,286047001.6,N
1587536315.8,286047001.3,N
1587536335.6,286047001.4,N
1587536355.5,286047003.2,N
1587536375.3,286047001.5,N
1587536395.2,286047004.1,N
1587536415.9,286047005.9,N
1587536435.7,286047006.0,N
1587536455.6,286047005.9,N
1587536475.4,286047003.0,N
1587536495.2,286047003.4,N
1587536515.1,286047000.2,N
1587536516.0,286047000.2,N
1587536535.8,286047000.5,N
1587536555.7,286047000.2,N
1587536575.5,286046999.8,N
1587536595.3,286047001.6,N
1587536615.2,286047003.2,N
1587536635.0,286047001.4,N
1587536635.9,286047001.4,N
1587536655.8,286047000.1,N
1587536675.6,286047001.0,N
1587536695.4,286047001.1,N
1587536715.3,286047001.1,N
1587536735.1,286047005.1,N
1587536755.8,286047003.7,N
1587536775.7,286047002.9,N
1587536795.5,286047003.3,N
1587536815.4,286047002.6,N
1587536835.2,286047001.0,N
1587536855.0,286047002.7,N
1587536855.9,286047002.7,N
1587536875.8,286047002.2,N
1587536895.6,286047001.1,N
1587536915.5,286047000.0,N
1587536935.3,286046996.6,N
1587536955.1,286046998.6,N
1587536975.9,286046996.5,N
1587536995.7,286047000.6,N
1587537015.5,286046998.2,N
1587537035.4,286046998.4,N
1587537055.2,286047002.8,N
1587537075.1,286047002.4,N
1587537076.0,286047002.4,N
1587537095.8,286047004.2,N
1587537115.6,286047004.0,N
1587537135.5,286047001.7,N
1587537155.3,286047002.4,N
1587537175.1,286047003.7,N
1587537195.9,286047004.3,N
1587537215.7,286047002.4,N
1587537235.6,286046999.8,N
1587537255.4,286046998.6,N
1587537275.2,286046997.0,N
1587537295.1,286046998.8,N
1587537296.0,286046998.8,N
1587537315.8,286047000.7,N
1587537335.7,286047000.9,N
1587537355.5,286046999.9,N
1587537375.3,286047000.3,N
1587537395.2,286047000.0,N
1587537415.0,286047000.3,N
1587537415.9,286047000.3,N
1587537435.7,286046999.1,N
1587537455.6,286046997.3,N
1587537475.4,286046996.6,N
1587537495.3,286046998.9,N
1587537515.1,286046999.1,N
1587537516.0,286046999.1,N
1587537535.8,286046998.4,N
1587537555.7,286047002.1,N
1587537575.5,286047005.6,N
1587537595.4,286047003.0,N
1587537615.2,286047002.0,N
1587537635.0,286046998.8,N
1587537635.9,286046998.8,N
1587537655.8,286046999.9,N
1587537675.6,286047001.9,N
1587537695.5,286047004.3,N
1587537715.3,286047006.4,N
1587537735.1,286047005.0,N
1587537755.9,286047005.8,N
1587537775.7,286047002.4,N
1587537795.5,286047000.6,N
1587537815.4,286046999.9,N
1587537835.2,286047002.0,N
1587537855.1,286047001.9,N
1587537856.0,286047001.9,N
1587537875.8,286047004.3,N
1587537895.6,286047006.0,N
1587537915.5,286047005.4,N
1587537935.3,286047002.0,N
1587537955.2,286047001.6,N
1587537975.9,286047002.8,N
1587537995.7,286047000.7,N
1587538015.6,286047001.0,N
1587538035.4,286046999.7,N
1587538055.3,286047004.2,N
1587538075.1,286046999.8,N
1587538076.0,286046999.8,N
1587538095.8,286047000.8,N
1587538115.7,286046998.7,N
1587538135.5,286046999.6,N
1587538155.4,286046999.5,N
1587538175.2,286046996.6,N
1587538195.0,286046996.8,N
1587538195.9,286046996.8,N
1587538215.8,286046997.1,N
1587538235.6,286046997.8,N
1587538255.4,286046998.3,N
1587538275.3,286047000.5,N
1587538295.1,286047000.5,N
1587538315.9,286046998.8,N
1587538335.7,286046999.2,N
1587538355.5,286046998.6,N
1587538375.4,286047000.2,N
1587538395.2,286047002.8,N
1587538415.1,286047002.0,N
1587538416.0,286047002.0,N
1587538435.8,286047002.6,N
1587538455.6,286047002.6,N
1587538475.5,286047002.4,N
1587538495.3,286047000.7,N
1587538515.1,286046999.0,N
1587538535.9,286046997.2,N
1587538555.7,286046999.4,N
1587538575.6,286046997.6,N
1587538595.4,286046996.1,N
1587538615.2,286046993.4,Y
1587538635.1,286046993.7,P
1587538666.0,286046995.5,E
1587538675.0,286046997.9,N
1587538675.9,286046997.9,P
1587538695.8,286046996.7,P
1587538715.6,286046996.5,Y
1587538735.5,286047001.6,P
1587538755.3,286047001.3,N
1587538775.1,286047005.5,N
1587538795.9,286047003.1,N
